User: anonymous   Login
Location: Vancouver
(49.2500°N, 123.1330°W)
Time: 18:47:55
(UTC-07:00)
Language:

S-56A Canister/Altair - Orbit

View from above orbital plane
View from above orbital plane
View from above satellite
View from above satellite

Ground track
Ground track

The orbit data is extracted from the following two-line orbital elements,

1 00082U 61004B   15115.80889914  .00000111  00000-0  13858-3 0  9992
2 00082 038.8563 315.4977 1173184 014.7872 348.4273 12.25691322577132
Epoch (UTC): 25 April 2015 19:24:48
Eccentricity: 0.1173184
inclination: 38.8563°
perigee height: 635 km
apogee height: 2500 km
right ascension of ascending node: 315.4977°
argument of perigee: 14.7872°
revolutions per day: 12.25691322
mean anomaly at epoch: 348.4273°
orbit number at epoch: 57713

The dashed part of the orbit path shows where the satellite is in the earth's shadow,  

DLR